Погода в Сосновке

Россия / Новосибирская область     54°40′53″N   82°57′25″E
темп.,
°C
ветер,
м/с
пор.,
м/с
влажн.,
%
обл.,
%
осадки,
мм/ч
давл.,
гПа
погр.,
м
8 марта, пн
пн801:00−12ююв347582 0.0 102124
04:00−9ююв599297 0.0 1019111
07:00−5ююв7129299 0.0 1016246
10:00−5ю71387100 0.0 1013342
13:00−2ю81480100 0.0 1009575
16:00−1ююз101676100 0.0 1006727
19:00−2юз81585100 0.0 1007602
22:00−1зюз101595100 0.8 1010725
9 марта, вт
вт901:00−12з579282 0.9 1016108
04:00−14зюз699386 0.0 1021142
07:00−15юз6109393 0.0 1024169
10:00−15юз6118853 0.0 1026262
13:00−10ююз8128368 0.0 1026609
16:00−8ююз7118022 0.0 1025514
19:00−9ююз598358 0.0 1024147
22:00−11ююз698741 0.0 1023124
10 марта, ср
ср1001:00−12ююз588927 0.0 1022106
04:00−14ю46920 0.0 102157
07:00−14ю459227 0.0 102068
10:00−11ю468990 0.0 1020167
13:00−8ю358494 0.0 1019327
16:00−5ююв4587100 0.0 1016339
19:00−4юв5992100 0.0 1012189
22:00−1ююв81486100 0.0 1007387
11 марта, чт
чт1101:000ю81681100 0.0 1002551
04:00+2юз81797100 0.3 1000485
07:00−6зюз10188188 0.4 1005616
10:00−10юз7158698 0.0 1011401
13:00−6юз8138599 0.0 1013786
16:00−5юз91283100 0.1 10151072
19:00−6юз71386100 0.1 1017554
22:00−11ююз599199 0.0 1019121
12 марта, пт
пт1201:00−11ююв578899 0.0 1016121
04:00−5ю101893100 0.3 1011749
07:00−7юз101677100 1.2 1011748
10:00−12юз8158433 0.0 1014493
13:00−11зюз8137817 0.0 1017931
16:00−12зюз8118385 0.1 10181080
19:00−15зюз588993 0.1 1019191
22:00−18юз4596100 0.0 102061